This is the latest recevied weather packets stored in our database for station/object DH0GMA. If no packets are shown the sender has not sent any weather packets the latest 10 day(s).
| Time | Temp. | Humidity | Pressure | Rain* | Wind** | Luminosity | Snow |
|---|---|---|---|---|---|---|---|
| 1777772104 | 9.44° C | 76% | 1015.5 hPa | 0 mm | - | - | - |
| 1777771504 | 9.44° C | 76% | 1015.3 hPa | 0 mm | - | - | - |
| 1777770904 | 10° C | 76% | 1015.5 hPa | 0 mm | - | - | - |
| 1777770304 | 10° C | 76% | 1015.5 hPa | 0 mm | - | - | - |
| 1777769704 | 9.44° C | 77% | 1015.6 hPa | 0 mm | - | - | - |
| 1777769104 | 9.44° C | 77% | 1015.6 hPa | 0 mm | - | - | - |
| 1777768503 | 9.44° C | 77% | 1015.6 hPa | 0 mm | - | - | - |
| 1777767903 | 10° C | 76% | 1015.8 hPa | 0 mm | - | - | - |
| 1777767303 | 10° C | 76% | 1015.6 hPa | 0 mm | - | - | - |
| 1777766703 | 10° C | 76% | 1015.8 hPa | 0 mm | - | - | - |
| 1777766103 | 10° C | 76% | 1015.7 hPa | 0 mm | - | - | - |
| 1777765503 | 10.56° C | 75% | 1015.8 hPa | 0 mm | - | - | - |
| 1777764903 | 10.56° C | 76% | 1015.9 hPa | 0 mm | - | - | - |
| 1777764303 | 10.56° C | 75% | 1015.9 hPa | 0 mm | - | - | - |
| 1777763702 | 10.56° C | 75% | 1016.1 hPa | 0 mm | - | - | - |
| 1777763102 | 11.11° C | 74% | 1016.1 hPa | 0 mm | - | - | - |
| 1777762504 | 11.11° C | 72% | 1016.2 hPa | 0 mm | - | - | - |
| 1777761904 | 11.11° C | 72% | 1016.2 hPa | 0 mm | - | - | - |
| 1777761304 | 11.67° C | 71% | 1016.2 hPa | 0 mm | - | - | - |
| 1777760704 | 11.67° C | 70% | 1016.2 hPa | 0 mm | - | - | - |
| 1777760104 | 12.22° C | 69% | 1016.2 hPa | 0 mm | - | - | - |
| 1777759504 | 12.22° C | 68% | 1016.2 hPa | 0 mm | - | - | - |
| 1777758903 | 12.78° C | 67% | 1016.2 hPa | 0 mm | - | - | - |
| 1777758303 | 12.78° C | 66% | 1016.2 hPa | 0 mm | - | - | - |
| 1777757703 | 13.33° C | 64% | 1016.2 hPa | 0 mm | - | - | - |
* Rain latest hour (hover to see other rain measurements)
** Current wind speed in m/s (hover to see current wind gust speed)